Printer-friendly version

IAU Minor Planet Center

Minor Planet Center

MPEC 2006-F30 : 2006 FU

The following Minor Planet Electronic Circular may be linked-to from your own Web pages, but must not otherwise be redistributed electronically.


Read MPEC 2006-F29 Read MPEC 2006-F31


M.P.E.C. 2006-F30                                Issued 2006 Mar. 24, 22:26 UT

     The Minor Planet Electronic Circulars contain information on unusual
         minor planets and routine data on comets.  They are published
   on behalf of Commission 20 of the International Astronomical Union by the
          Minor Planet Center, Smithsonian Astrophysical Observatory,
                          Cambridge, MA 02138, U.S.A.

                  Supported in part by the Brinson Foundation
                  Supported in part by the TABASGO Foundation
             Prepared using the Tamkin Foundation Computer Network

                              MPC@CFA.HARVARD.EDU
          URL http://cfa-www.harvard.edu/iau/mpc.html  ISSN 1523-6714

                                    2006 FU

Observations:
     K06F00U* C2006 03 24.28580 11 52 10.16 +24 20 01.6          19.5 V EF030703
     K06F00U  C2006 03 24.29288 11 52 04.54 +24 18 25.3          18.9 V EF030703
     K06F00U  C2006 03 24.29995 11 51 59.00 +24 16 48.2          19.2 V EF030703
     K06F00U  C2006 03 24.30698 11 51 53.46 +24 15 11.4          18.6 V EF030703
     K06F00U  C2006 03 24.34201 11 51 25.77 +24 07 04.1          18.8 V EF030703
     K06F00U  C2006 03 24.34926 11 51 19.90 +24 05 20.6          19.2 V EF030703
     K06F00U  C2006 03 24.35651 11 51 14.25 +24 03 38.4          19.1 V EF030703
     K06F00U  C2006 03 24.36374 11 51 08.49 +24 01 55.1          18.8 V EF030703
     K06F00U  C2006 03 24.82972 11 45 39.24 +21 57 13.0          17.8 R EF030J87
     K06F00U  C2006 03 24.83120 11 45 37.95 +21 56 47.4          17.4 R EF030J87
     K06F00U  C2006 03 24.83269 11 45 36.60 +21 56 21.7          18.5 R EF030J87
     K06F00U  C2006 03 24.91288 11 44 19.66 +21 32 40.5          18.8 R EF030176
     K06F00U  C2006 03 24.91328 11 44 19.25 +21 32 33.1          18.7 R EF030176
     K06F00U  C2006 03 24.91368 11 44 18.85 +21 32 25.6          18.8 R EF030176
     K06F00U  C2006 03 24.91388 11 44 18.65 +21 32 21.9          18.8 R EF030176
     K06F00U  C2006 03 24.91448 11 44 18.05 +21 32 10.6          19.1 R EF030176

Observer details:
176 Observatori Astronomic de Consell.  Observers A. Lopez, R. Pacheco.
    0.41-m f/4 reflector + CCD.
703 Catalina Sky Survey.  Observer S. M. Larson.  Measurers E. C. Beshore,
    E. J. Christensen, G. J. Garradd, A. R. Gibbs, A. D. Grauer, R. E. Hill,
    R. A. Kowalski, S. M. Larson, R. H. McNaught.  0.68-m Schmidt + CCD.
J87 La Canada.  Observer J. Lacruz.  0.30-m Schmidt-Cassegrain + CCD.

Orbital elements:
2006 FU                                                  Earth MOID = 0.0092 AU
Epoch 2006 Mar. 6.0 TT = JDT 2453800.5                  MPC
M 327.43709              (2000.0)            P               Q
n   0.52253169     Peri.  233.16461     -0.52335716     +0.85180530
a   1.5266083      Node     5.42912     -0.68420421     -0.40404987
e   0.4152918      Incl.   14.01497     -0.50789947     -0.33342382
P   1.89           H   25.6           G   0.15           U   7
Residuals in seconds of arc
060324 703  0.6+  0.7+    060324 703  0.6+  0.4+    060324 176  0.0   0.2+
060324 703  0.5-  0.3+    060324 703  0.5+  0.6+    060324 176  0.1-  0.1+
060324 703  0.4-  0.4-    060324 J87  0.1-  0.4-    060324 176  0.2-  0.1+
060324 703  0.4-  0.8-    060324 J87  0.3+  0.3-    060324 176  0.4-  0.2-
060324 703  0.3+  0.1+    060324 J87  0.1+  0.1-
060324 703  1.1-  0.7-    060324 176  0.2+  0.2+

Ephemeris:
2006 FU                  a,e,i = 1.53, 0.42, 14                  q = 0.8926
Date    TT    R. A. (2000) Decl.     Delta      r     Elong.  Phase     V
2006 03 16    12 25.98   +34 15.7    0.0884   1.069   146.1    31.3    21.8
2006 03 17    12 24.44   +33 54.0    0.0811   1.063   146.4    31.2    21.6
2006 03 18    12 22.59   +33 26.8    0.0739   1.058   146.8    31.0    21.4
2006 03 19    12 20.32   +32 52.3    0.0667   1.052   147.2    30.8    21.2
2006 03 20    12 17.53   +32 07.8    0.0596   1.047   147.8    30.4    20.9
2006 03 21    12 14.01   +31 09.6    0.0524   1.041   148.6    29.9    20.6
2006 03 22    12 09.49   +29 51.3    0.0454   1.036   149.7    29.1    20.2
2006 03 23    12 03.47   +28 02.0    0.0384   1.030   151.1    27.9    19.8
2006 03 24    11 55.15   +25 21.2    0.0315   1.025   153.1    26.1    19.3
2006 03 25    11 42.93   +21 07.1    0.0247   1.020   155.9    23.5    18.7
2006 03 26    11 23.46   +13 42.4    0.0184   1.015   159.1    20.5    18.0
2006 03 27    10 48.41   -00 57.2    0.0128   1.010   156.5    23.2    17.3
2006 03 28    09 33.92   -29 21.0    0.00975  1.005   131.3    48.2    17.4
2006 03 29    06 52.53   -55 52.6    0.0113   1.000    95.9    83.5    18.8
2006 03 30    04 05.75   -59 14.1    0.0162   0.995    75.4   103.7    20.4
2006 03 31    02 47.25   -55 46.8    0.0223   0.990    65.5   113.4    21.7
2006 04 01    02 10.69   -52 41.1    0.0289   0.985    60.1   118.4    22.6
2006 04 02    01 50.53   -50 25.3    0.0357   0.980    57.0   121.3    23.3
2006 04 03    01 37.92   -48 45.4    0.0426   0.976    55.0   123.0    23.8
2006 04 04    01 29.32   -47 29.3    0.0495   0.971    53.7   124.0    24.2
2006 04 05    01 23.09   -46 29.2    0.0565   0.967    52.8   124.6    24.5

Timothy B. Spahr             (C) Copyright 2006 MPC           M.P.E.C. 2006-F30

Read MPEC 2006-F29 Read MPEC 2006-F31


Our Web policy. Index to the CBAT/MPC/ICQ pages.


Valid HTML 4.01!